Latest Coastal Weather Observations for Spring Bay

IDT60701

Issued at 5:22 pm EST Saturday 30 July 2016 (issued every 10 minutes, with the page automatically refreshed every 10 minutes)

About coastal observations | Map of coastal stations | Coastal observations for TAS | Marine services | Other Formats
Station Details ID: 092133 Name: SPRING BAY NTC AWS Lat: -42.55 Lon: 147.93 Height: 0.0 m
Data from the previous 72 hours. | See also: Recent months for locations in Tasmania
Date/Time
EST
Temp
°C
Wind Pressure Rain since
9am
mm
Weather Cloud Vis
km
Sea
Height
m
Swell
Dir  Spd
kts
Gust
kts
hPa Trend Height
m
Period
s
Dir
30/05:00pm 9.9 - - - 1010.8 - - - - - - - - -
30/04:30pm 10.3 - - - 1011.4 - - - - - - - - -
30/04:00pm 10.2 - - - 1011.8 - - - - - - - - -
30/03:30pm 10.3 - - - 1012.5 - - - - - - - - -
30/03:00pm 10.4 - - - 1012.5 - - - - - - - - -
30/02:30pm 10.4 - - - 1013.0 - - - - - - - - -
30/02:00pm 10.2 - - - 1013.5 - - - - - - - - -
30/01:30pm 9.9 - - - 1014.0 - - - - - - - - -
30/01:00pm 9.9 - - - 1014.7 - - - - - - - - -
30/12:30pm 10.2 - - - 1015.6 - - - - - - - - -
30/12:00pm 9.7 - - - 1016.2 - - - - - - - - -
30/11:30am 9.7 - - - 1017.2 - - - - - - - - -
30/11:00am 10.9 - - - 1017.9 - - - - - - - - -
30/10:30am 9.8 - - - 1018.1 - - - - - - - - -
30/10:00am 8.0 - - - 1018.3 - - - - - - - - -
30/09:30am 7.8 - - - 1018.6 - - - - - - - - -
30/09:00am 6.5 - - - 1018.6 - - - - - - - - -
30/08:30am 6.1 - - - 1018.5 - - - - - - - - -
30/08:00am 3.4 - - - 1018.5 - - - - - - - - -
30/07:30am 3.4 - - - 1018.3 - - - - - - - - -
30/07:00am 3.6 - - - 1018.1 - - - - - - - - -
30/06:30am 3.4 - - - 1018.0 - - - - - - - - -
30/06:00am 5.2 - - - 1018.1 - - - - - - - - -
30/05:30am 4.6 - - - 1017.8 - - - - - - - - -
30/05:00am 5.0 - - - 1017.6 - - - - - - - - -
30/04:30am 4.9 - - - 1017.7 - - - - - - - - -
30/04:00am 4.5 - - - 1017.4 - - - - - - - - -
30/03:30am 4.7 - - - 1017.4 - - - - - - - - -
30/03:00am 5.5 - - - 1017.4 - - - - - - - - -
30/02:30am 6.5 - - - 1017.3 - - - - - - - - -
30/02:00am 7.3 - - - 1017.1 - - - - - - - - -
30/01:30am 8.4 - - - 1016.6 - - - - - - - - -
30/01:00am 8.5 - - - 1016.6 - - - - - - - - -
30/12:30am 8.5 - - - 1016.0 - - - - - - - - -
30/12:00am 8.5 - - - 1016.0 - - - - - - - - -
 
Date/Time
EST
Temp
°C
Wind Pressure Rain since
9am
mm
Weather Cloud Vis
km
Sea
Height
m
Swell
Dir  Spd
kts
Gust
kts
hPa Trend Height
m
Period
s
Dir
29/11:30pm 9.0 - - - 1015.4 - - - - - - - - -
29/11:00pm 9.0 - - - 1014.9 - - - - - - - - -
29/10:30pm 9.1 - - - 1014.2 - - - - - - - - -
29/10:00pm 9.3 - - - 1013.7 - - - - - - - - -
29/09:30pm 9.5 - - - 1013.5 - - - - - - - - -
29/09:00pm 9.5 - - - 1013.1 - - - - - - - - -
29/08:30pm 9.7 - - - 1012.7 - - - - - - - - -
29/08:00pm 10.1 - - - 1012.0 - - - - - - - - -
29/07:30pm 10.4 - - - 1010.9 - - - - - - - - -
29/07:00pm 10.4 - - - 1010.1 - - - - - - - - -
29/06:30pm 10.5 - - - 1009.7 - - - - - - - - -
29/06:00pm 10.3 - - - 1008.8 - - - - - - - - -
29/05:30pm 11.7 - - - 1007.8 - - - - - - - - -
29/05:00pm 12.0 - - - 1006.8 - - - - - - - - -
29/04:30pm 12.2 - - - 1006.2 - - - - - - - - -
29/04:00pm 13.3 - - - 1005.9 - - - - - - - - -
29/03:30pm 12.7 - - - 1005.4 - - - - - - - - -
29/03:00pm 13.5 - - - 1004.9 - - - - - - - - -
29/02:30pm 13.5 - - - 1004.5 - - - - - - - - -
29/02:00pm 13.3 - - - 1004.4 - - - - - - - - -
29/01:30pm 13.8 - - - 1004.7 - - - - - - - - -
29/01:00pm 13.7 - - - 1004.9 - - - - - - - - -
29/12:30pm 13.9 - - - 1005.3 - - - - - - - - -
29/12:00pm 14.1 - - - 1005.3 - - - - - - - - -
29/11:30am 14.4 - - - 1005.6 - - - - - - - - -
29/11:00am 13.1 - - - 1006.2 - - - - - - - - -
29/10:30am 12.2 - - - 1006.4 - - - - - - - - -
29/10:00am 11.8 - - - 1006.4 - - - - - - - - -
29/09:30am 11.4 - - - 1006.7 - - - - - - - - -
29/09:00am 10.6 - - - 1007.0 - - - - - - - - -
29/08:30am 10.2 - - - 1007.3 - - - - - - - - -
29/08:00am 9.9 - - - 1007.1 - - - - - - - - -
29/07:30am 11.0 - - - 1007.2 - - - - - - - - -
29/07:00am 10.4 - - - 1007.1 - - - - - - - - -
29/06:30am 10.2 - - - 1007.0 - - - - - - - - -
29/06:00am 10.0 - - - 1007.2 - - - - - - - - -
29/05:30am 9.7 - - - 1007.3 - - - - - - - - -
29/05:00am 9.4 - - - 1007.4 - - - - - - - - -
29/04:30am 9.9 - - - 1007.4 - - - - - - - - -
29/04:00am 9.6 - - - 1007.9 - - - - - - - - -
29/03:30am 9.7 - - - 1007.9 - - - - - - - - -
29/03:00am 9.3 - - - 1008.1 - - - - - - - - -
29/02:30am 9.4 - - - 1008.5 - - - - - - - - -
29/02:00am 9.3 - - - 1008.8 - - - - - - - - -
29/01:30am 10.0 - - - 1009.2 - - - - - - - - -
29/01:00am 10.4 - - - 1009.4 - - - - - - - - -
29/12:30am 10.4 - - - 1009.6 - - - - - - - - -
29/12:00am 11.2 - - - 1009.9 - - - - - - - - -
 
Date/Time
EST
Temp
°C
Wind Pressure Rain since
9am
mm
Weather Cloud Vis
km
Sea
Height
m
Swell
Dir  Spd
kts
Gust
kts
hPa Trend Height
m
Period
s
Dir
28/11:30pm 11.7 - - - 1010.2 - - - - - - - - -
28/11:00pm 12.0 - - - 1010.4 - - - - - - - - -
28/10:30pm 12.2 - - - 1010.4 - - - - - - - - -
28/10:00pm 11.9 - - - 1010.5 - - - - - - - - -
28/09:30pm 11.8 - - - 1010.6 - - - - - - - - -
28/09:00pm 11.9 - - - 1010.7 - - - - - - - - -
28/08:30pm 11.7 - - - 1010.7 - - - - - - - - -
28/08:00pm 11.3 - - - 1010.6 - - - - - - - - -
28/07:30pm 11.5 - - - 1010.5 - - - - - - - - -
28/07:00pm 12.5 - - - 1010.3 - - - - - - - - -
28/06:30pm 12.5 - - - 1009.8 - - - - - - - - -
28/06:00pm 12.8 - - - 1009.6 - - - - - - - - -
28/05:30pm 13.0 - - - 1008.8 - - - - - - - - -
28/05:00pm 13.3 - - - 1008.3 - - - - - - - - -
28/04:30pm 13.5 - - - 1008.0 - - - - - - - - -
28/04:00pm 13.9 - - - 1007.2 - - - - - - - - -
28/03:30pm 14.2 - - - 1006.8 - - - - - - - - -
28/03:00pm 14.9 - - - 1006.5 - - - - - - - - -
28/02:30pm 15.4 - - - 1006.3 - - - - - - - - -
28/02:00pm 15.2 - - - 1005.9 - - - - - - - - -
28/01:30pm 15.4 - - - 1006.1 - - - - - - - - -
28/01:00pm 15.8 - - - 1006.2 - - - - - - - - -
28/12:30pm 15.7 - - - 1006.1 - - - - - - - - -
28/12:00pm 15.3 - - - 1005.9 - - - - - - - - -
28/11:30am 14.9 - - - 1006.1 - - - - - - - - -
28/11:00am 14.5 - - - 1006.2 - - - - - - - - -
28/10:30am 14.5 - - - 1006.3 - - - - - - - - -
28/10:00am 13.9 - - - 1006.2 - - - - - - - - -
28/09:30am 13.6 - - - 1006.0 - - - - - - - - -
28/09:00am 13.0 - - - 1005.9 - - - - - - - - -
28/08:30am 12.5 - - - 1005.8 - - - - - - - - -
28/08:00am 11.7 - - - 1005.7 - - - - - - - - -
28/07:30am 11.4 - - - 1006.0 - - - - - - - - -
28/07:00am 11.3 - - - 1006.0 - - - - - - - - -
28/06:30am 11.0 - - - 1006.5 - - - - - - - - -
28/06:00am 11.0 - - - 1006.4 - - - - - - - - -
28/05:30am 11.1 - - - 1006.2 - - - - - - - - -
28/05:00am 11.2 - - - 1006.2 - - - - - - - - -
28/04:30am 11.2 - - - 1006.3 - - - - - - - - -
28/04:00am 11.2 - - - 1006.5 - - - - - - - - -
28/03:30am 11.2 - - - 1006.8 - - - - - - - - -

Other Formats:

Comma delimited format used in spreadsheet applications
http://www.bom.gov.au/fwo/IDT60701/IDT60701.95987.axf

JavaScript Object Notation format (JSON) in row-major order
http://www.bom.gov.au/fwo/IDT60701/IDT60701.95987.json